Regional Weather Roundup
Issued by NWS

Home | Current Version | Previous Version | Graphics & Text | Print | Product List | Glossary On
Versions: 1 2 3 4 5 6 7 8 9 10 11 12 13 14 15 16 17 18 19 20 21 22 23 24 25 26 27 28 29 30 31 32 33 34 35 36 37 38 39 40 41 42 43 44 45 46 47 48 49 50
000
ASUS43 KIND 212009
RWRIN

WEATHER ROUNDUP FOR INDIANA
NATIONAL WEATHER SERVICE INDIANAPOLIS IN
300 PM EST SUN DEC 21 2014

NOTE: "FAIR" INDICATES FEW OR NO CLOUDS BELOW 12,000 FEET WITH NO
SIGNIFICANT WEATHER AND/OR OBSTRUCTIONS TO VISIBILITY.

* - STATION DOES NOT REPORT WEATHER SUCH AS PRECIPITATION OR FOG.

+ - STATION NOT QUALITY CONTROLLED BY THE NATIONAL WEATHER SERVICE.
    USE DATA WITH CAUTION...ESPECIALLY DEWPOINT AND RELATIVE
    HUMIDITY OBSERVATIONS.

INZ001>003-010>013-019-020-212100-
NORTHWEST INDIANA

CITY           SKY/WX    TMP DP  RH WIND       PRES   REMARKS
GARY /AIRPORT/ CLOUDY    37  25  60 S12       30.14F
KNOX *+        PTSUNNY   38  25  60 SE10      30.14F
LA PORTE +     CLOUDY    37  30  74 S5        30.15F
MICHIGAN CITY+ CLOUDY    34  25  69 S8        30.15F WCI  27
MONTICELLO +   MOSUNNY   37  29  72 S9        30.15F
RENSSELAER +   CLOUDY    37  32  81 SE9       30.14F
VALPARAISO     CLOUDY    35  27  72 S9        30.14F WCI  28

$$

LMZ046-743>745-212100-
SOUTHERN LAKE MICHIGAN

STATION/POSITION TIME  TEMP WIND        PRES
                       AIR  DIR/SP/G
                 (UTC) (F)  (DEG/KT/KT) (MB)

$$

INZ004-005-014>016-021>024-212100-
NORTH CENTRAL INDIANA

CITY           SKY/WX    TMP DP  RH WIND       PRES   REMARKS
GOSHEN         MOSUNNY   37  27  67 S10       30.16F
LOGANSPORT +   MOSUNNY   36  28  75 SE10      30.16F
PERU/GRISSOM   MOSUNNY   36  32  86 SE8       30.16F
ROCHESTER +    MOSUNNY   39  30  70 SE9       30.16F
SOUTH BEND     NOT AVBL
WARSAW +       MOSUNNY   36  27  69 SE6       30.16F

$$

INZ006>009-017-018-025>027-212100-
NORTHEAST INDIANA

CITY           SKY/WX    TMP DP  RH WIND       PRES   REMARKS
ANGOLA *+      CLOUDY    32  25  74 SE12      30.17F WCI  23
AUBURN +       PTSUNNY   36  25  64 CALM      30.19F
FORT WAYNE     MOSUNNY   35  25  66 SE9       30.20F HAZE    WCI  28
HUNTINGTON +   MOSUNNY   35  27  71 S7        30.17F WCI  29

$$

INZ028-029-035-036-043>045-051>053-212100-
WEST CENTRAL INDIANA

CITY           SKY/WX    TMP DP  RH WIND       PRES   REMARKS
GREENCASTLE +  SUNNY     36  27  69 SE6       30.15F
LAFAYETTE      SUNNY     38  29  70 SE7       30.15F
TERRE HAUTE    SUNNY     39  29  67 SE9       30.15F

$$

INZ030>032-037>040-046>048-054>057-064-065-212100-
CENTRAL INDIANA

CITY           SKY/WX    TMP DP  RH WIND       PRES   REMARKS
CP ATTERBURY + MOSUNNY   37  30  75 MISG      30.18F
COLUMBUS       SUNNY     36  28  75 S5        30.18F
FRANKFORT +    SUNNY     38  31  74 SE9       30.17F
GREENWOOD *+   MOSUNNY   36  27  69 SE5       30.17F
INDIANAPOLIS   PTSUNNY   36  27  69 E7        30.16F
-EAGLE CREEK   SUNNY     36  26  67 SE9       30.16F
KOKOMO *+      MOSUNNY   36  28  75 SE12      30.17F
MARION +       SUNNY     35  30  81 S9        30.18F WCI  28
MT COMFORT *+  SUNNY     37  21  52 SE7       30.18F
SHELBYVILLE    MOSUNNY   38  29  70 SE7       30.17F
ZIONSVILLE +   MOSUNNY   37  27  65 S9        30.16F

$$

INZ033-034-041-042-049-050-058-059-212100-
EAST CENTRAL INDIANA

CITY           SKY/WX    TMP DP  RH WIND       PRES   REMARKS
MUNCIE         SUNNY     36  27  69 SE9       30.17F

$$

INZ060-061-067>069-081>083-085>088-212100-
SOUTHWEST INDIANA

CITY           SKY/WX    TMP DP  RH WIND       PRES   REMARKS
EVANSVILLE     MOSUNNY   44  30  57 E5        30.15F
HUNTINGBURG *+ PTSUNNY   43  30  61 SE5       30.15F
WASHINGTON +   PTSUNNY   40  29  64 E7        30.15F

$$

INZ062-063-066-070>080-084-089>092-212100-
SOUTH CENTRAL AND SOUTHEAST INDIANA

CITY           SKY/WX    TMP DP  RH WIND       PRES   REMARKS
BLOOMINGTON    MOSUNNY   38  29  70 SE8       30.14F
NORTH VERNON + MOSUNNY   39  28  65 SE8       30.18F

$$



USA.gov is the U.S. government's official web portal to all federal, state and local government web resources and services.